Location: D�pe
(52.6057°N, 8.1808°E)
Time: 14:48:51
(UTC+00:00)

ERBS - Pass Details

Date: 29 October 2020
Orbit: 407 x 422 km, 57.0° (Epoch: 28 November)

Event Time Altitude Azimuth Distance (km) Brightness Sun altitude
Rises 18:16:09 0° 294° (WNW) 2,372 7.3 -20.8°
Reaches altitude 10° 18:18:16 10° 299° (WNW) 1,510 6.0 -21.1°
Enters shadow 18:21:03 46° 341° (NNW) 581 3.0 -21.5°
